Regional Weather Roundup
Issued by NWS

Home | Current Version | Previous Version | Text Only | Print | Product List | Glossary Off
Versions: 1 2 3 4 5 6 7 8 9 10 11 12 13 14 15 16 17 18 19 20 21 22 23 24 25 26 27 28 29 30 31 32 33 34 35 36 37 38 39 40 41 42 43 44 45 46 47 48 49 50

000
ASUS43 KDTX 180710
RWRMI
MICHIGAN HOURLY REGIONAL WEATHER ROUNDUP
NATIONAL WEATHER SERVICE DETROIT/PONTIAC MI
200 AM EST WED JAN 18 2017

NOTE: "FAIR" INDICATES FEW OR NO CLOUDS BELOW 12,000 FEET WITH NO
SIGNIFICANT WEATHER AND/OR OBSTRUCTION TO VISIBILITY.

MIZ047>049-052>055-059>063-066>070-074>076-081>083-180800-
SOUTHEAST LOWER MICHIGAN

CITY           SKY/WX    TMP DP  RH WIND       PRES   REMARKS
ADRIAN         CLOUDY    36  35  96 W7        29.96R WCI  30
ALMA           CLOUDY    36  35  97 W7        29.92R FOG     WCI  30
ANN ARBOR      CLOUDY    37  35  92 W14       29.93R WCI  28
BAD AXE        CLOUDY    33  33 100 NW6       29.89R FOG     WCI  28
CARO           CLOUDY    34  34  99 W5        29.90R FOG     WCI  30
DETROIT CITY   CLOUDY    37  37 100 W9        29.92  WCI  31
DETROIT        CLOUDY    39  36  89 W8        29.94R WCI  33
FLINT          CLOUDY    36  35  96 W10       29.91R FOG     WCI  28
GROSSE ILE     CLOUDY    39  36  91 W6        29.93R WCI  34
HILLSDALE      CLOUDY    34  32  93 W10G17    29.93S WCI  26
HOWELL         CLOUDY    36  35  95 W9        29.91S WCI  29

CITY           SKY/WX    TMP DP  RH WIND       PRES   REMARKS
JACKSON        CLOUDY    36  34  92 W9        29.94R WCI  29
LAMBERTVILLE   CLOUDY    39  35  86 W7        29.96R WCI  34
LANSING        CLOUDY    36  34  92 W9        29.93S FOG     WCI  29
LAPEER         CLOUDY    36  36  99 W7        29.89R WCI  30
MASON          CLOUDY    36  36 100 W8        29.93R WCI  29
MONROE         CLOUDY    38  37  99 W9        29.93S FOG     WCI  31
MT. CLEMENS    CLOUDY    38  38  98 W8        29.89R WCI  32
PONTIAC        CLOUDY    36  34  92 W13       29.89R WCI  27
PORT HOPE        N/A     35  34  96 W10       29.86R WCI  27
PORT HURON     LGT RAIN  36  36 100 CALM      29.90R
TRI CITIES     CLOUDY    35  35 100 W9        29.91R FOG     WCI  28
MIDLAND        CLOUDY    35  34  96 W3        29.90R FOG
TROY           CLOUDY    38  35  88 W12       29.93R WCI  31
SAGINAW HB     CLOUDY    36  34  93 W7        29.91R FOG     WCI  30
$$
MIZ043>046-050>051-056>058-064>065-071>073-077>080-180800-
SOUTHWEST LOWER MICHIGAN

CITY           SKY/WX    TMP DP  RH WIND       PRES   REMARKS
BATTLE CREEK   CLOUDY    35  35 100 W14       29.95R FOG     WCI  26
BENTON HARBOR  CLOUDY    37  34  89 W13       30.00R WCI  29
BIG RAPIDS     FOG       34  33  96 CALM      29.91R VSB 1
COLDWATER      CLOUDY    35  35 100 W13G18    29.96R WCI  26
FREMONT        FOG       35  35 100 W6        29.93R VSB 3/4 WCI  30
HOLLAND        CLOUDY    36  34  92 W9        29.97R WCI  29
GRAND RAPIDS   CLOUDY    36  34  92 W10       29.95R FOG     WCI  28
IONIA          CLOUDY    35  35  99 W9        29.92R FOG     WCI  28
KALAMAZOO      CLOUDY    36  33  89 W12       29.96R WCI  28
LUDINGTON      CLOUDY    36  36 100 NW5       29.92S FOG     WCI  32
MARSHALL       FLURRIES  35  35  98 W8        29.94R WCI  29
MOUNT PLEASANT CLOUDY    35  34  99 W5        29.90R WCI  31
MUSKEGON       CLOUDY    36  35  96 W9        29.96R WCI  29
SOUTH HAVEN    CLOUDY    36  35  94 W10       29.99R WCI  29
$$
MIZ016>042-180800-
NORTHERN LOWER MICHIGAN

CITY           SKY/WX    TMP DP  RH WIND       PRES   REMARKS
ALPENA         FOG       33  32  96 NW6       29.90R VSB 3/4 WCI  28
BEAVER ISLAND  CLOUDY    32  32 100 CALM      29.92R FOG
BELLAIRE       FOG       32  32  99 CALM      29.92R VSB 1
CADILLAC       CLOUDY    33  33  96 CALM      29.88R FOG
CHARLEVOIX     CLOUDY    32  32 100 CALM      29.93S FOG
FRANKFORT      CLOUDY    35  35 100 CALM      29.93R FOG
GAYLORD        CLOUDY    33  29  85 CALM      29.87R FOG
GRAYLING       FOG       35  33  95 CALM      29.89R VSB 3/4
HARBOR SPRINGS CLOUDY    32  32  99 CALM      29.90S FOG
HOUGHTON LAKE  CLOUDY    33  32  96 NW3       29.88R
MANISTEE       CLOUDY    36  34  93 NW3       29.93R FOG
OSCODA         CLOUDY    35  34  96 NW5       29.88R FOG     WCI  31
PELLSTON       FOG       32  30  92 CALM      29.90S VSB 3/4
ROGERS CITY    CLOUDY    33  32  96 NW3       29.90S FOG
TRAVERSE CITY  CLOUDY    34  32  92 W3        29.91R FOG
$$
MIZ007>008-015-180800-
EASTERN UPPER MICHIGAN

CITY           SKY/WX    TMP DP  RH WIND       PRES   REMARKS
KINROSS        CLOUDY    30  28  92 CALM      29.89S
MACKINAC ISLAN CLOUDY    31  31 100 CALM      29.89S FOG
NEWBERRY       MOCLDY    26  25  96 SW5       29.89R WCI  20
S. S. MARIE    CLOUDY    32  26  78 SW3       29.89S
MUNISING         N/A     28  26  92 S7        29.89S WCI  21
$$
MIZ004>006-011>014-085-180800-
CENTRAL UPPER MICHIGAN

CITY           SKY/WX    TMP DP  RH WIND       PRES   REMARKS
MANISTIQUE     CLOUDY    32  32  99 CALM      29.91R
ESCANABA       CLOUDY    33  32  96 W5        29.93S WCI  29
SAWYER-GWINN   FOG       25  24  96 SW6       29.88S VSB 1/2 WCI  18
$$
MIZ001>003-009>011-084-180800-
WESTERN UPPER MICHIGAN

CITY           SKY/WX    TMP DP  RH WIND       PRES   REMARKS
IRON MOUNTAIN  FOG       18  14  84 CALM      29.89S VSB 1/4
HOUGHTON       CLOUDY    32  23  69 W12       29.83S WCI  23
COPPER HARBOR    N/A     25  22  88 CALM      29.84F
IRONWOOD       CLOUDY    31  27  85 S9        29.85F WCI  23
$$

ABBREVIATIONS USED IN REMARKS
   TC - TEMPERATURE IN CELSIUS
  WCI - WIND CHILL INDEX
   HX - HEAT INDEX
  VSB - VISIBILITY





USA.gov is the U.S. government's official web portal to all federal, state and local government web resources and services.